Home   Weather   Minden   Past weeks

Flag for Germany Past Weather in Minden, North Rhine-Westphalia, Germany — Yesterday and Last 2 Weeks

Now
64 °F

Passing clouds.


Feels Like: 64 °F
Forecast: 58 / 70 °F
Wind: 3 mph from South

Location: Bueckeburg

Current Time: Jul 26, 2017 at 10:57:05 pm

Latest Report: Jul 26, 2017 at 10:20 pm


Visibility: N/A

Pressure: 29.77 "Hg

Humidity: 88%

Dew Point: 61 °F

Location of MindenLocation

Past Weather in Minden — Graph

°F

Minden Temperature Yesterday

Maximum temperature yesterday: 63 °F (at 3:20 pm)
Minimum temperature yesterday: 57 °F (at 12:20 am)
Average temperature yesterday: 60 °F

High & Low Weather Summary for the Past Weeks

 TemperatureHumidityPressure
High90 °F (Jul 19, 5:20 pm)100% (Jul 12, 10:33 am)30.21 "Hg (Jul 12, 10:33 am)
Low52 °F (Jul 13, 4:20 am)38% (Jul 14, 2:20 pm)29.65 "Hg (Jul 25, 3:20 pm)
Average64 °F79%29.93 "Hg
* Reported Jul 11 9:20 pm — Jul 26 9:20 pm, Minden. Weather by CustomWeather, © 2017

Note: Actual official high and low records may vary slightly from our data, if they occured in-between our weather recording intervals... More about our weather records

Advertising

Minden Weather History for the Previous 24 Hours

Scroll right to see more
 ConditionsComfort  
Time TempWeatherWind HumidityBarometerVisibility
9:20 pm
Wed, Jul 26
66 °FBroken clouds.3 mph78%29.77 "HgN/A
8:20 pm70 °FScattered clouds.2 mph64%29.74 "HgN/A
7:20 pm70 °FPassing clouds.6 mph57%29.74 "HgN/A
6:20 pm72 °FPartly sunny.6 mph53%29.74 "HgN/A
5:20 pm72 °FBroken clouds.9 mph57%29.74 "HgN/A
4:20 pm70 °FBroken clouds.13 mph60%29.74 "HgN/A
3:20 pm72 °FBroken clouds.13 mph57%29.74 "HgN/A
2:20 pm72 °FBroken clouds.12 mph57%29.74 "HgN/A
1:20 pm66 °FBroken clouds.9 mph73%29.74 "HgN/A
12:20 pm64 °FBroken clouds.9 mph83%29.74 "HgN/A
11:20 am63 °FPartly sunny.6 mph88%29.74 "HgN/A
10:44 am61 °FBroken clouds.10 mph94%29.74 "Hg5 mi
9:20 am57 °FPartly sunny.6 mph100%29.74 "HgN/A
8:20 am57 °FLight rain. Broken clouds.7 mph94%29.74 "HgN/A
7:20 am55 °FLight rain. Cloudy.8 mph100%29.71 "Hg5 mi
6:42 am57 °FLight rain. Mostly cloudy.9 mph94%29.71 "Hg4 mi
6:20 am57 °FLight rain. Partly sunny.10 mph94%29.71 "Hg4 mi
5:20 am57 °FLight rain. Passing clouds.12 mph100%29.71 "Hg4 mi
4:20 am57 °FLight rain. Passing clouds.10 mph100%29.68 "Hg4 mi
3:20 am57 °FPassing clouds.9 mph100%29.68 "HgN/A
2:20 am59 °FPassing clouds.12 mph94%29.71 "HgN/A
1:20 am57 °FPartly cloudy.9 mph94%29.68 "HgN/A
12:20 am57 °FDrizzle. Mostly cloudy.8 mph94%29.71 "HgN/A
11:20 pm
Tue, Jul 25
59 °FDrizzle. Mostly cloudy.9 mph94%29.71 "HgN/A
10:20 pm59 °FPartly cloudy.8 mph94%29.71 "HgN/A
Weather by CustomWeather, © 2017

See weather overviewHow to use our weather pages